Patuxent River, MD

12:25 AM EDT on May 26, 2017 (GMT -0400)
Patuxent River Naval Air Station

Weather History for KNHK - December, 2011

Change the Weather History Date:

Thursday, December 8, 2011

  Actual Average Record
Temperature  
Mean Temperature 38 °F -  
Max Temperature 46 °F 52 °F 74 °F (1978)
Min Temperature 30 °F 34 °F 22 °F (1977)
Degree Days  
Heating Degree Days 27    
Moisture  
Dew Point 27 °F    
Average Humidity 64    
Maximum Humidity 85    
Minimum Humidity 44    
Precipitation  
Precipitation 0.00 in - - ()
Sea Level Pressure  
Sea Level Pressure 30.18 in    
Wind  
Wind Speed 14 mph (West)    
Max Wind Speed 21 mph    
Max Gust Speed 33 mph    
Visibility 10 miles    
Events      
Averages and records for this station are not official NWS values.
T = Trace of Precipitation, MM = Missing Value Source: NWS Daily Summary

Daily Weather History Graph

Daily Weather History Graph

Search for Another Location

Airport or City:

Trip Planner

Search our weather history database for the weather conditions in past years. The results will help you decide how hot, cold, wet, or windy it might be!

Date:

Astronomy

Dec. 08, 2011 Rise Set
Actual Time 7:09 AM EST 4:45 PM EST
Civil Twilight 6:40 AM EST 5:14 PM EST
Nautical Twilight 6:07 AM EST 5:47 PM EST
Astronomical Twilight 5:35 AM EST 6:19 PM EST
Moon 3:22 PM EST (12/8) 5:20 AM EST (12/8)
Length of Visible Light 10h 34m
Length of Day
9h 35m
Waxing Gibbous, 97% of the Moon is Illuminated
Dec 8
Waxing Gibbous
Dec 10
Full
Dec 17
Last Quarter
Dec 24
New
Jan 1
First Quarter

Hourly Weather History & Observations

Time (EST) Temp. Windchill Dew Point Humidity Pressure Visibility Wind Dir Wind Speed Gust Speed Precip Events Conditions
12:40 AM 41.0 °F 31.6 °F 35.6 °F 81% 29.81 in 10.0 mi West 20.7 mph 33.4 mph 0.00 in   Overcast
12:52 AM 39.9 °F 31.1 °F 35.1 °F 83% 29.82 in 10.0 mi West 17.3 mph 32.2 mph 0.00 in   Mostly Cloudy
1:52 AM 41.0 °F 31.9 °F 33.1 °F 73% 29.88 in 10.0 mi WNW 19.6 mph 26.5 mph N/A   Partly Cloudy
2:52 AM 42.1 °F 34.5 °F 32.0 °F 67% 29.93 in 10.0 mi West 15.0 mph 26.5 mph N/A   Overcast
3:52 AM 39.9 °F 30.8 °F 28.9 °F 65% 29.97 in 10.0 mi West 18.4 mph 24.2 mph N/A   Scattered Clouds
4:52 AM 39.9 °F 31.8 °F 27.0 °F 60% 30.03 in 10.0 mi WNW 15.0 mph 32.2 mph N/A   Clear
5:52 AM 37.9 °F 28.2 °F 25.0 °F 60% 30.08 in 10.0 mi WNW 18.4 mph 25.3 mph N/A   Mostly Cloudy
6:52 AM 36.0 °F 26.3 °F 24.1 °F 62% 30.14 in 10.0 mi West 16.1 mph - N/A   Partly Cloudy
7:52 AM 37.0 °F 28.9 °F 23.0 °F 57% 30.20 in 10.0 mi West 12.7 mph - N/A   Partly Cloudy
8:52 AM 39.0 °F 30.3 °F 23.0 °F 53% 30.21 in 10.0 mi WNW 16.1 mph 25.3 mph N/A   Clear
9:52 AM 39.9 °F 31.8 °F 24.1 °F 53% 30.24 in 10.0 mi NW 15.0 mph 24.2 mph N/A   Clear
10:52 AM 42.1 °F 35.7 °F 25.0 °F 51% 30.25 in 10.0 mi WNW 11.5 mph - N/A   Partly Cloudy
11:52 AM 43.0 °F 36.0 °F 25.0 °F 49% 30.26 in 10.0 mi WNW 13.8 mph - N/A   Clear
12:52 PM 44.1 °F 38.6 °F 25.0 °F 47% 30.25 in 10.0 mi West 10.4 mph - N/A   Clear
1:52 PM 46.0 °F 40.6 °F 25.0 °F 44% 30.25 in 10.0 mi West 11.5 mph - N/A   Partly Cloudy
2:52 PM 46.0 °F 43.9 °F 26.1 °F 46% 30.26 in 10.0 mi WSW 4.6 mph - N/A   Scattered Clouds
3:52 PM 45.0 °F 41.2 °F 25.0 °F 46% 30.28 in 10.0 mi WSW 6.9 mph - N/A   Scattered Clouds
4:52 PM 41.0 °F 37.1 °F 26.1 °F 55% 30.30 in 10.0 mi West 5.8 mph - N/A   Mostly Cloudy
5:52 PM 39.9 °F 37.8 °F 26.1 °F 58% 30.32 in 10.0 mi West 3.5 mph - N/A   Mostly Cloudy
6:52 PM 35.1 °F - 28.0 °F 76% 30.33 in 10.0 mi Calm Calm - N/A   Mostly Cloudy
7:52 PM 32.0 °F - 27.0 °F 82% 30.34 in 10.0 mi Calm Calm - N/A   Scattered Clouds
8:52 PM 30.9 °F - 27.0 °F 85% 30.35 in 10.0 mi Calm Calm - N/A   Mostly Cloudy
9:52 PM 32.0 °F 28.7 °F 28.0 °F 85% 30.36 in 10.0 mi SSW 3.5 mph - N/A   Mostly Cloudy
10:52 PM 30.9 °F - 27.0 °F 85% 30.35 in 10.0 mi Calm Calm - N/A   Mostly Cloudy
11:52 PM 30.9 °F - 27.0 °F 85% 30.34 in 10.0 mi Calm Calm - N/A   Clear